| time (UTC) | temp F | wind direction | speed MPH | gust MPH | rain 1hr in | rain 24hr in | rain mn in | humidity % | barometer mb |
| 20260903205525 | 56 | 79 | 10.0 | 20.0 | 0.00 | 0.02 | 0.00 | 82 | 1015.2 |
| 20260903205004 | 56 | 77 | 9.0 | 19.0 | 0.00 | 0.02 | 0.00 | 82 | 1015.4 |
| 20260903204504 | 56 | 73 | 9.0 | 20.0 | 0.00 | 0.02 | 0.00 | 82 | 1015.3 |
| 20260903204004 | 56 | 70 | 10.0 | 20.0 | 0.00 | 0.02 | 0.00 | 82 | 1015.3 |
| 20260903203504 | 56 | 69 | 10.0 | 18.0 | 0.00 | 0.02 | 0.00 | 82 | 1015.3 |
| 20260903203004 | 56 | 70 | 9.0 | 19.0 | 0.00 | 0.02 | 0.00 | 82 | 1015.5 |
| 20260903202504 | 56 | 68 | 9.0 | 19.0 | 0.00 | 0.02 | 0.00 | 82 | 1015.6 |
| 20260903202004 | 56 | 64 | 8.0 | 18.0 | 0.00 | 0.02 | 0.00 | 83 | 1015.7 |
| 20260903201504 | 56 | 65 | 8.0 | 18.0 | 0.00 | 0.02 | 0.00 | 83 | 1015.8 |
| 20260903201004 | 56 | 63 | 8.0 | 14.0 | 0.00 | 0.02 | 0.00 | 83 | 1015.8 |
| 20260903200504 | 56 | 64 | 9.0 | 17.0 | 0.00 | 0.02 | 0.00 | 84 | 1015.8 |
| 20260903200004 | 56 | 68 | 10.0 | 19.0 | 0.00 | 0.02 | 0.00 | 84 | 1015.9 |
| 20260903195504 | 56 | 59 | 9.0 | 19.0 | 0.00 | 0.02 | 0.00 | 84 | 1015.9 |
| 20260903195004 | 56 | 55 | 9.0 | 20.0 | 0.00 | 0.02 | 0.00 | 84 | 1016.0 |
| 20260903194504 | 55 | 63 | 9.0 | 20.0 | 0.00 | 0.02 | 0.00 | 85 | 1016.0 |
| 20260903194004 | 55 | 62 | 8.0 | 19.0 | 0.00 | 0.02 | 0.00 | 85 | 1016.1 |
| 20260903193503 | 55 | 56 | 7.0 | 19.0 | 0.00 | 0.02 | 0.00 | 85 | 1016.3 |
| 20260903193004 | 55 | 61 | 8.0 | 14.0 | 0.00 | 0.02 | 0.00 | 86 | 1016.4 |
| 20260903192504 | 55 | 66 | 8.0 | 14.0 | 0.00 | 0.02 | 0.00 | 86 | 1016.5 |
| 20260903192004 | 55 | 63 | 7.0 | 14.0 | 0.00 | 0.02 | 0.00 | 86 | 1016.6 |
| 20260903191504 | 55 | 62 | 7.0 | 14.0 | 0.00 | 0.02 | 0.00 | 86 | 1016.6 |
| 20260903191004 | 54 | 57 | 6.0 | 14.0 | 0.00 | 0.02 | 0.00 | 87 | 1016.5 |
| 20260903190504 | 54 | 53 | 6.0 | 14.0 | 0.00 | 0.02 | 0.00 | 87 | 1016.5 |
| 20260903190004 | 54 | 57 | 6.0 | 13.0 | 0.00 | 0.02 | 0.00 | 88 | 1016.4 |
| 20260903185504 | 54 | 67 | 6.0 | 11.0 | 0.00 | 0.02 | 0.00 | 88 | 1016.2 |
| 20260903185004 | 54 | 72 | 6.0 | 13.0 | 0.00 | 0.02 | 0.00 | 88 | 1016.1 |
| 20260903184504 | 54 | 75 | 6.0 | 13.0 | 0.00 | 0.02 | 0.00 | 88 | 1016.2 |
| 20260903184004 | 54 | 78 | 5.0 | 11.0 | 0.00 | 0.02 | 0.00 | 88 | 1016.3 |
| 20260903183504 | 54 | 74 | 7.0 | 11.0 | 0.00 | 0.02 | 0.00 | 88 | 1016.3 |
| 20260903183004 | 54 | 85 | 8.0 | 14.0 | 0.00 | 0.02 | 0.00 | 88 | 1016.4 |
| 20260903182504 | 54 | 93 | 8.0 | 14.0 | 0.00 | 0.02 | 0.00 | 88 | 1016.1 |
| 20260903182025 | 54 | 93 | 7.0 | 14.0 | 0.00 | 0.02 | 0.00 | 88 | 1015.9 |
| 20260903181504 | 54 | 91 | 5.0 | 13.0 | 0.00 | 0.02 | 0.00 | 88 | 1016.4 |
| 20260903181004 | 54 | 85 | 5.0 | 13.0 | 0.00 | 0.02 | 0.00 | 88 | 1016.5 |
| 20260903180503 | 54 | 79 | 4.0 | 13.0 | 0.00 | 0.02 | 0.00 | 88 | 1016.7 |
| 20260903180025 | 54 | 77 | 4.0 | 10.0 | 0.00 | 0.02 | 0.00 | 88 | 1016.8 |
| 20260903175504 | 54 | 74 | 4.0 | 10.0 | 0.00 | 0.02 | 0.00 | 88 | 1017.0 |
| 20260903175025 | 54 | 76 | 6.0 | 9.0 | 0.00 | 0.02 | 0.00 | 88 | 1017.2 |
| 20260903174525 | 54 | 80 | 6.0 | 10.0 | 0.00 | 0.02 | 0.00 | 88 | 1017.1 |
| 20260903174004 | 54 | 86 | 6.0 | 10.0 | 0.00 | 0.02 | 0.00 | 88 | 1017.1 |
| 20260903173504 | 54 | 88 | 4.0 | 10.0 | 0.00 | 0.02 | 0.00 | 88 | 1017.1 |
| 20260903173003 | 54 | 84 | 4.0 | 9.0 | 0.00 | 0.02 | 0.00 | 88 | 1017.3 |
| 20260903172524 | 54 | 86 | 4.0 | 8.0 | 0.00 | 0.02 | 0.00 | 88 | 1017.6 |
| 20260903172004 | 54 | 91 | 4.0 | 8.0 | 0.00 | 0.02 | 0.00 | 87 | 1017.7 |
| 20260903171504 | 54 | 84 | 3.0 | 8.0 | 0.00 | 0.02 | 0.00 | 88 | 1017.8 |
| 20260903171004 | 54 | 73 | 3.0 | 8.0 | 0.00 | 0.02 | 0.00 | 88 | 1018.0 |
| 20260903170503 | 54 | 70 | 3.0 | 8.0 | 0.00 | 0.02 | 0.00 | 88 | 1018.0 |
| 20260903170025 | 54 | 71 | 4.0 | 8.0 | 0.00 | 0.02 | 0.00 | 88 | 1018.0 |
| 20260903165504 | 54 | 81 | 5.0 | 9.0 | 0.00 | 0.02 | 0.00 | 87 | 1018.0 |
| 20260903165004 | 54 | 85 | 5.0 | 9.0 | 0.00 | 0.02 | 0.00 | 87 | 1017.9 |
| 20260903164504 | 54 | 87 | 4.0 | 9.0 | 0.00 | 0.02 | 0.00 | 87 | 1018.0 |
| 20260903164003 | 54 | 91 | 4.0 | 9.0 | 0.00 | 0.02 | 0.00 | 87 | 1018.0 |
| 20260903163504 | 53 | 92 | 4.0 | 9.0 | 0.00 | 0.02 | 0.00 | 87 | 1018.1 |
| 20260903163003 | 53 | 96 | 4.0 | 9.0 | 0.00 | 0.02 | 0.00 | 87 | 1018.1 |
| 20260903162503 | 53 | 97 | 4.0 | 8.0 | 0.00 | 0.02 | 0.00 | 87 | 1018.1 |
| 20260903162025 | 54 | 95 | 4.0 | 8.0 | 0.00 | 0.02 | 0.00 | 87 | 1018.2 |
| 20260903161503 | 54 | 95 | 3.0 | 8.0 | 0.00 | 0.02 | 0.00 | 87 | 1018.2 |
| 20260903161004 | 54 | 99 | 3.0 | 6.0 | 0.00 | 0.02 | 0.00 | 87 | 1018.2 |
| 20260903160525 | 54 | 106 | 3.0 | 6.0 | 0.00 | 0.02 | 0.00 | 87 | 1018.1 |
| 20260903160004 | 54 | 106 | 5.0 | 8.0 | 0.00 | 0.02 | 0.00 | 87 | 1018.1 |
| 20260903155503 | 54 | 108 | 5.0 | 9.0 | 0.00 | 0.02 | 0.00 | 87 | 1018.1 |
| 20260903155003 | 55 | 110 | 5.0 | 9.0 | 0.00 | 0.02 | 0.00 | 87 | 1018.1 |
| 20260903154504 | 55 | 111 | 5.0 | 8.0 | 0.00 | 0.02 | 0.00 | 87 | 1018.1 |
| 20260903154003 | 55 | 117 | 4.0 | 8.0 | 0.00 | 0.02 | 0.00 | 87 | 1018.2 |
| 20260903153504 | 55 | 119 | 4.0 | 6.0 | 0.00 | 0.02 | 0.00 | 86 | 1018.3 |
| 20260903153025 | 55 | 115 | 4.0 | 6.0 | 0.00 | 0.02 | 0.00 | 86 | 1018.3 |
| 20260903152503 | 55 | 112 | 3.0 | 8.0 | 0.00 | 0.02 | 0.00 | 86 | 1018.3 |
| 20260903152025 | 55 | 112 | 2.0 | 8.0 | 0.00 | 0.02 | 0.00 | 86 | 1018.4 |
| 20260903151503 | 56 | 114 | 1.0 | 6.0 | 0.00 | 0.02 | 0.00 | 86 | 1018.5 |
| 20260903151003 | 56 | 99 | 1.0 | 5.0 | 0.00 | 0.02 | 0.00 | 85 | 1018.6 |
| 20260903150504 | 56 | 89 | 2.0 | 5.0 | 0.00 | 0.02 | 0.00 | 85 | 1018.6 |
| 20260903150025 | 56 | 109 | 2.0 | 3.0 | 0.00 | 0.02 | 0.00 | 85 | 1018.7 |
| 20260903145503 | 56 | 120 | 2.0 | 6.0 | 0.00 | 0.02 | 0.00 | 85 | 1018.7 |
| 20260903145004 | 56 | 114 | 2.0 | 6.0 | 0.00 | 0.02 | 0.00 | 84 | 1018.7 |
| 20260903144503 | 56 | 96 | 1.0 | 6.0 | 0.00 | 0.02 | 0.00 | 84 | 1018.9 |
| 20260903144003 | 55 | 78 | 2.0 | 5.0 | 0.00 | 0.02 | 0.00 | 84 | 1019.0 |
| 20260903143503 | 55 | 76 | 3.0 | 8.0 | 0.00 | 0.02 | 0.00 | 84 | 1019.0 |
| 20260903143005 | 55 | 79 | 2.0 | 8.0 | 0.00 | 0.02 | 0.00 | 84 | 1019.1 |
| 20260903142503 | 55 | 86 | 2.0 | 8.0 | 0.00 | 0.02 | 0.02 | 83 | 1019.0 |
| 20260903142024 | 55 | 93 | 1.0 | 8.0 | 0.00 | 0.02 | 0.02 | 83 | 1019.1 |
| 20260903141504 | 55 | 85 | 0.0 | 5.0 | 0.00 | 0.02 | 0.02 | 82 | 1019.1 |
| 20260903141003 | 55 | 62 | 0.0 | 3.0 | 0.00 | 0.02 | 0.02 | 82 | 1019.2 |
| 20260903140525 | 55 | 62 | 0.0 | 1.0 | 0.00 | 0.02 | 0.02 | 82 | 1019.2 |
| 20260903140004 | 55 | 62 | 1.0 | 1.0 | 0.00 | 0.02 | 0.02 | 81 | 1019.4 |
| 20260903135504 | 55 | 89 | 1.0 | 5.0 | 0.00 | 0.02 | 0.02 | 81 | 1019.5 |
| 20260903135004 | 55 | 85 | 0.0 | 5.0 | 0.00 | 0.02 | 0.02 | 80 | 1019.6 |
| 20260903134503 | 55 | 78 | 0.0 | 3.0 | 0.00 | 0.02 | 0.02 | 80 | 1019.6 |
| 20260903134003 | 55 | 86 | 0.0 | 3.0 | 0.00 | 0.02 | 0.02 | 80 | 1019.6 |
| 20260903133504 | 55 | 88 | 0.0 | 3.0 | 0.00 | 0.02 | 0.02 | 79 | 1019.7 |
| 20260903133024 | 55 | 0 | 0.0 | 0.0 | 0.00 | 0.02 | 0.02 | 79 | 1019.8 |
| 20260903132503 | 55 | 44 | 0.0 | 1.0 | 0.00 | 0.02 | 0.02 | 79 | 1019.8 |
| 20260903132004 | 56 | 51 | 0.0 | 3.0 | 0.00 | 0.02 | 0.02 | 79 | 1019.9 |
| 20260903131503 | 56 | 51 | 1.0 | 3.0 | 0.00 | 0.02 | 0.02 | 79 | 1019.9 |
| 20260903131003 | 56 | 64 | 2.0 | 3.0 | 0.00 | 0.02 | 0.02 | 79 | 1020.0 |
| 20260903130504 | 56 | 79 | 3.0 | 6.0 | 0.00 | 0.02 | 0.02 | 79 | 1020.0 |
| 20260903130024 | 56 | 92 | 4.0 | 6.0 | 0.00 | 0.02 | 0.02 | 79 | 1020.0 |
| 20260903125503 | 56 | 99 | 4.0 | 6.0 | 0.00 | 0.02 | 0.02 | 80 | 1020.0 |
| 20260903125003 | 56 | 98 | 4.0 | 8.0 | 0.00 | 0.02 | 0.02 | 80 | 1020.0 |
| 20260903124524 | 56 | 100 | 4.0 | 8.0 | 0.00 | 0.02 | 0.02 | 79 | 1020.1 |
| 20260903124004 | 56 | 100 | 4.0 | 6.0 | 0.00 | 0.02 | 0.02 | 79 | 1020.1 |
| 20260903123504 | 56 | 93 | 3.0 | 6.0 | 0.00 | 0.02 | 0.02 | 79 | 1020.1 |
| 20260903123003 | 56 | 91 | 3.0 | 6.0 | 0.00 | 0.02 | 0.02 | 80 | 1020.2 |
| 20260903122504 | 56 | 99 | 3.0 | 5.0 | 0.00 | 0.02 | 0.02 | 80 | 1020.2 |
| 20260903122003 | 56 | 102 | 3.0 | 6.0 | 0.00 | 0.02 | 0.02 | 80 | 1020.2 |
| 20260903121504 | 56 | 96 | 3.0 | 6.0 | 0.00 | 0.02 | 0.02 | 80 | 1020.3 |
| 20260903121004 | 56 | 83 | 2.0 | 6.0 | 0.00 | 0.02 | 0.02 | 81 | 1020.2 |
| 20260903120503 | 56 | 70 | 2.0 | 5.0 | 0.00 | 0.02 | 0.02 | 82 | 1020.2 |
| 20260903120003 | 56 | 66 | 2.0 | 5.0 | 0.00 | 0.02 | 0.02 | 82 | 1020.2 |
| 20260903115503 | 56 | 62 | 2.0 | 6.0 | 0.00 | 0.02 | 0.02 | 82 | 1020.4 |
| 20260903115024 | 56 | 74 | 2.0 | 6.0 | 0.00 | 0.02 | 0.02 | 82 | 1020.4 |
| 20260903114504 | 56 | 94 | 0.0 | 6.0 | 0.00 | 0.02 | 0.02 | 82 | 1020.3 |
| 20260903114024 | 56 | 108 | 0.0 | 4.0 | 0.00 | 0.02 | 0.02 | 82 | 1020.3 |
| 20260903113503 | 56 | 103 | 1.0 | 3.0 | 0.00 | 0.02 | 0.02 | 81 | 1020.2 |
| 20260903113004 | 56 | 103 | 2.0 | 5.0 | 0.00 | 0.02 | 0.02 | 81 | 1020.3 |
| 20260903112503 | 56 | 103 | 3.0 | 5.0 | 0.00 | 0.02 | 0.02 | 81 | 1020.2 |
| 20260903112003 | 56 | 105 | 3.0 | 5.0 | 0.00 | 0.02 | 0.02 | 81 | 1020.1 |
| 20260903111503 | 56 | 109 | 3.0 | 5.0 | 0.00 | 0.02 | 0.02 | 81 | 1020.1 |
| 20260903111024 | 56 | 105 | 4.0 | 6.0 | 0.00 | 0.02 | 0.02 | 80 | 1020.0 |
| 20260903110504 | 56 | 101 | 3.0 | 6.0 | 0.00 | 0.02 | 0.02 | 80 | 1020.0 |
| 20260903110003 | 56 | 101 | 1.0 | 6.0 | 0.00 | 0.02 | 0.02 | 80 | 1019.9 |
| 20260903105503 | 56 | 103 | 0.0 | 5.0 | 0.00 | 0.02 | 0.02 | 80 | 1019.9 |
| 20260903105003 | 56 | 0 | 0.0 | 0.0 | 0.00 | 0.02 | 0.02 | 80 | 1019.9 |
| 20260903104503 | 56 | 0 | 0.0 | 0.0 | 0.00 | 0.02 | 0.02 | 80 | 1019.9 |
| 20260903104004 | 56 | 0 | 0.0 | 0.0 | 0.00 | 0.02 | 0.02 | 80 | 1019.8 |
| 20260903103504 | 56 | 0 | 0.0 | 0.0 | 0.00 | 0.02 | 0.02 | 80 | 1019.8 |
| 20260903103003 | 56 | 0 | 0.0 | 0.0 | 0.00 | 0.02 | 0.02 | 80 | 1019.7 |
| 20260903102503 | 56 | 0 | 1.0 | 0.0 | 0.00 | 0.02 | 0.02 | 80 | 1019.6 |
| 20260903102003 | 56 | 101 | 1.0 | 3.0 | 0.00 | 0.02 | 0.02 | 79 | 1019.6 |
| 20260903101525 | 56 | 101 | 1.0 | 3.0 | 0.00 | 0.02 | 0.02 | 79 | 1019.5 |
| 20260903101003 | 56 | 101 | 1.0 | 3.0 | 0.00 | 0.02 | 0.02 | 79 | 1019.4 |
| 20260903100504 | 56 | 101 | 1.0 | 5.0 | 0.00 | 0.02 | 0.02 | 78 | 1019.3 |
| 20260903100004 | 56 | 101 | 1.0 | 5.0 | 0.00 | 0.02 | 0.02 | 78 | 1019.3 |
| 20260903095504 | 56 | 141 | 1.0 | 3.0 | 0.00 | 0.02 | 0.02 | 78 | 1019.2 |
| 20260903095004 | 57 | 141 | 1.0 | 3.0 | 0.00 | 0.02 | 0.02 | 78 | 1019.2 |
| 20260903094504 | 57 | 141 | 0.0 | 3.0 | 0.00 | 0.02 | 0.02 | 78 | 1019.2 |
| 20260903094004 | 57 | 141 | 0.0 | 3.0 | 0.00 | 0.02 | 0.02 | 78 | 1019.2 |
| 20260903093504 | 57 | 0 | 0.0 | 0.0 | 0.00 | 0.02 | 0.02 | 78 | 1019.1 |
| 20260903093004 | 57 | 141 | 0.0 | 3.0 | 0.00 | 0.02 | 0.02 | 77 | 1019.1 |
| 20260903092525 | 57 | 141 | 0.0 | 3.0 | 0.00 | 0.02 | 0.02 | 76 | 1019.0 |
| 20260903092025 | 57 | 141 | 0.0 | 3.0 | 0.00 | 0.02 | 0.02 | 76 | 1018.9 |
| 20260903091504 | 58 | 141 | 0.0 | 3.0 | 0.00 | 0.02 | 0.02 | 76 | 1018.9 |
| 20260903091004 | 58 | 0 | 0.0 | 0.0 | 0.00 | 0.02 | 0.02 | 75 | 1019.0 |
| 20260903090504 | 58 | 196 | 0.0 | 3.0 | 0.00 | 0.02 | 0.02 | 74 | 1019.0 |
| 20260903090004 | 58 | 194 | 0.0 | 3.0 | 0.00 | 0.02 | 0.02 | 74 | 1019.0 |
| 20260903085525 | 58 | 184 | 0.0 | 1.0 | 0.00 | 0.02 | 0.02 | 74 | 1018.9 |
| 20260903085004 | 58 | 184 | 0.0 | 3.0 | 0.00 | 0.02 | 0.02 | 73 | 1018.9 |
| 20260903084525 | 59 | 184 | 0.0 | 3.0 | 0.00 | 0.02 | 0.02 | 73 | 1018.9 |
| 20260903084004 | 59 | 191 | 1.0 | 3.0 | 0.00 | 0.02 | 0.02 | 73 | 1019.0 |
| 20260903083504 | 59 | 185 | 1.0 | 6.0 | 0.00 | 0.02 | 0.02 | 72 | 1018.9 |
| 20260903083004 | 59 | 176 | 2.0 | 6.0 | 0.00 | 0.02 | 0.02 | 72 | 1018.8 |
| 20260903082504 | 59 | 179 | 3.0 | 6.0 | 0.00 | 0.02 | 0.02 | 71 | 1018.8 |
| 20260903082004 | 60 | 183 | 4.0 | 6.0 | 0.00 | 0.02 | 0.02 | 70 | 1018.7 |
| 20260903081504 | 60 | 199 | 4.0 | 6.0 | 0.00 | 0.02 | 0.02 | 70 | 1018.6 |
| 20260903081004 | 60 | 220 | 5.0 | 9.0 | 0.00 | 0.02 | 0.02 | 69 | 1018.7 |
| 20260903080504 | 60 | 220 | 5.0 | 10.0 | 0.00 | 0.02 | 0.02 | 69 | 1018.7 |
| 20260903080004 | 60 | 224 | 4.0 | 10.0 | 0.00 | 0.02 | 0.02 | 68 | 1018.6 |
| 20260903075504 | 61 | 222 | 5.0 | 9.0 | 0.00 | 0.02 | 0.02 | 68 | 1018.6 |
| 20260903075004 | 61 | 211 | 6.0 | 11.0 | 0.00 | 0.02 | 0.02 | 68 | 1018.4 |
| 20260903074504 | 61 | 213 | 6.0 | 11.0 | 0.00 | 0.02 | 0.02 | 67 | 1018.3 |
| 20260903074004 | 62 | 220 | 5.0 | 11.0 | 0.00 | 0.02 | 0.02 | 67 | 1018.3 |
| 20260903073504 | 62 | 215 | 5.0 | 15.0 | 0.00 | 0.02 | 0.02 | 68 | 1018.2 |
| 20260903073004 | 61 | 203 | 5.0 | 15.0 | 0.00 | 0.02 | 0.02 | 69 | 1018.2 |
| 20260903072504 | 61 | 204 | 6.0 | 10.0 | 0.00 | 0.02 | 0.02 | 69 | 1018.2 |
| 20260903072004 | 61 | 208 | 6.0 | 13.0 | 0.00 | 0.02 | 0.02 | 69 | 1018.2 |
| 20260903071504 | 61 | 212 | 6.0 | 14.0 | 0.00 | 0.02 | 0.02 | 69 | 1018.2 |
| 20260903071004 | 61 | 212 | 5.0 | 14.0 | 0.00 | 0.02 | 0.02 | 69 | 1018.2 |
| 20260903070525 | 62 | 203 | 5.0 | 11.0 | 0.00 | 0.02 | 0.02 | 69 | 1018.2 |
| 20260903070004 | 62 | 199 | 6.0 | 14.0 | 0.00 | 0.02 | 0.02 | 69 | 1018.1 |
| 20260903065504 | 62 | 199 | 6.0 | 14.0 | 0.00 | 0.02 | 0.02 | 70 | 1018.1 |
| 20260903065004 | 62 | 207 | 6.0 | 11.0 | 0.00 | 0.02 | 0.02 | 70 | 1018.1 |
| 20260903064504 | 62 | 216 | 6.0 | 13.0 | 0.00 | 0.02 | 0.02 | 70 | 1018.0 |
| 20260903064004 | 62 | 212 | 5.0 | 13.0 | 0.00 | 0.02 | 0.02 | 70 | 1018.0 |
| 20260903063504 | 62 | 219 | 5.0 | 9.0 | 0.00 | 0.02 | 0.02 | 72 | 1018.0 |
| 20260903063004 | 62 | 241 | 6.0 | 10.0 | 0.00 | 0.02 | 0.02 | 72 | 1018.0 |
| 20260903062504 | 62 | 225 | 7.0 | 11.0 | 0.00 | 0.02 | 0.02 | 71 | 1018.0 |
| 20260903062004 | 62 | 219 | 8.0 | 11.0 | 0.00 | 0.02 | 0.02 | 71 | 1018.1 |
| 20260903061504 | 62 | 224 | 8.0 | 13.0 | 0.00 | 0.02 | 0.02 | 70 | 1018.2 |
| 20260903061004 | 62 | 223 | 8.0 | 14.0 | 0.00 | 0.02 | 0.02 | 70 | 1018.2 |
| 20260903060504 | 62 | 228 | 9.0 | 14.0 | 0.00 | 0.02 | 0.02 | 70 | 1018.1 |
| 20260903060004 | 62 | 242 | 9.0 | 17.0 | 0.00 | 0.02 | 0.02 | 69 | 1018.1 |
| 20260903055525 | 63 | 246 | 10.0 | 17.0 | 0.00 | 0.02 | 0.02 | 68 | 1018.0 |
| 20260903055004 | 63 | 238 | 9.0 | 18.0 | 0.00 | 0.02 | 0.02 | 70 | 1018.0 |
| 20260903054525 | 63 | 232 | 8.0 | 18.0 | 0.00 | 0.02 | 0.02 | 69 | 1018.0 |
| 20260903054004 | 63 | 230 | 8.0 | 17.0 | 0.00 | 0.02 | 0.02 | 70 | 1018.0 |
| 20260903053504 | 63 | 239 | 8.0 | 14.0 | 0.00 | 0.02 | 0.02 | 71 | 1018.0 |
| 20260903053004 | 63 | 236 | 8.0 | 14.0 | 0.00 | 0.02 | 0.02 | 70 | 1017.9 |
| 20260903052504 | 63 | 236 | 9.0 | 15.0 | 0.00 | 0.02 | 0.02 | 71 | 1017.9 |
| 20260903052004 | 62 | 243 | 10.0 | 17.0 | 0.00 | 0.02 | 0.02 | 72 | 1017.9 |
| 20260903051525 | 62 | 241 | 10.0 | 20.0 | 0.00 | 0.02 | 0.02 | 74 | 1017.9 |
| 20260903051004 | 62 | 232 | 10.0 | 20.0 | 0.00 | 0.02 | 0.02 | 73 | 1017.9 |
| 20260903050504 | 62 | 225 | 10.0 | 17.0 | 0.00 | 0.02 | 0.02 | 73 | 1017.9 |
| 20260903050004 | 62 | 233 | 10.0 | 17.0 | 0.00 | 0.02 | 0.02 | 73 | 1017.7 |
| 20260903045504 | 62 | 240 | 9.0 | 17.0 | 0.00 | 0.02 | 0.02 | 74 | 1017.7 |
| 20260903045004 | 62 | 236 | 9.0 | 14.0 | 0.00 | 0.02 | 0.02 | 75 | 1017.7 |
| 20260903044525 | 62 | 234 | 11.0 | 17.0 | 0.00 | 0.02 | 0.02 | 76 | 1017.7 |
| 20260903044025 | 61 | 240 | 11.0 | 19.0 | 0.00 | 0.02 | 0.02 | 77 | 1017.7 |
| 20260903043525 | 61 | 237 | 11.0 | 19.0 | 0.00 | 0.02 | 0.02 | 76 | 1017.7 |
| 20260903043025 | 62 | 238 | 11.0 | 17.0 | 0.00 | 0.02 | 0.02 | 74 | 1017.6 |
| 20260903042525 | 62 | 247 | 10.0 | 20.0 | 0.00 | 0.02 | 0.02 | 74 | 1017.5 |
| 20260903042004 | 62 | 253 | 9.0 | 20.0 | 0.00 | 0.02 | 0.02 | 75 | 1017.4 |
| 20260903041525 | 62 | 252 | 9.0 | 15.0 | 0.00 | 0.02 | 0.02 | 76 | 1017.4 |
| 20260903041004 | 62 | 236 | 9.0 | 17.0 | 0.00 | 0.02 | 0.02 | 76 | 1017.4 |
| 20260903040504 | 62 | 230 | 9.0 | 17.0 | 0.00 | 0.02 | 0.02 | 75 | 1017.4 |
| 20260903040004 | 62 | 242 | 9.0 | 15.0 | 0.00 | 0.02 | 0.02 | 75 | 1017.4 |
| 20260903035504 | 62 | 235 | 9.0 | 17.0 | 0.00 | 0.02 | 0.02 | 76 | 1017.5 |
| 20260903035004 | 62 | 225 | 8.0 | 17.0 | 0.00 | 0.02 | 0.02 | 76 | 1017.5 |
| 20260903034503 | 62 | 235 | 8.0 | 15.0 | 0.00 | 0.02 | 0.02 | 77 | 1017.5 |
| 20260903034003 | 62 | 239 | 8.0 | 15.0 | 0.00 | 0.02 | 0.02 | 77 | 1017.6 |
| 20260903033525 | 61 | 243 | 8.0 | 13.0 | 0.00 | 0.02 | 0.02 | 78 | 1017.6 |
| 20260903033004 | 61 | 233 | 8.0 | 14.0 | 0.00 | 0.02 | 0.02 | 79 | 1017.6 |
| 20260903032503 | 61 | 225 | 9.0 | 15.0 | 0.00 | 0.02 | 0.02 | 80 | 1017.7 |
| 20260903032003 | 60 | 229 | 10.0 | 15.0 | 0.00 | 0.02 | 0.02 | 80 | 1017.7 |
| 20260903031504 | 60 | 240 | 9.0 | 17.0 | 0.00 | 0.02 | 0.02 | 80 | 1017.6 |
| 20260903031025 | 61 | 247 | 9.0 | 17.0 | 0.00 | 0.02 | 0.02 | 81 | 1017.7 |
| 20260903030504 | 61 | 242 | 9.0 | 17.0 | 0.01 | 0.02 | 0.02 | 83 | 1017.6 |
| 20260903030004 | 60 | 245 | 9.0 | 17.0 | 0.01 | 0.02 | 0.02 | 84 | 1017.6 |
| 20260903025503 | 60 | 244 | 8.0 | 17.0 | 0.02 | 0.02 | 0.02 | 85 | 1017.6 |
| 20260903025003 | 60 | 242 | 7.0 | 17.0 | 0.02 | 0.02 | 0.02 | 86 | 1017.6 |
| 20260903024503 | 59 | 243 | 7.0 | 14.0 | 0.02 | 0.02 | 0.02 | 86 | 1017.6 |
| 20260903024004 | 59 | 242 | 7.0 | 13.0 | 0.02 | 0.02 | 0.02 | 87 | 1017.6 |
| 20260903023504 | 59 | 240 | 8.0 | 11.0 | 0.02 | 0.02 | 0.02 | 87 | 1017.8 |
| 20260903023004 | 59 | 243 | 8.0 | 14.0 | 0.02 | 0.02 | 0.02 | 87 | 1017.8 |
| 20260903022504 | 59 | 249 | 8.0 | 14.0 | 0.02 | 0.02 | 0.02 | 88 | 1017.8 |
| 20260903022004 | 59 | 248 | 9.0 | 15.0 | 0.02 | 0.02 | 0.02 | 88 | 1017.8 |
| 20260903021503 | 58 | 249 | 10.0 | 17.0 | 0.02 | 0.02 | 0.02 | 87 | 1017.9 |
| 20260903021003 | 58 | 252 | 12.0 | 23.0 | 0.02 | 0.02 | 0.02 | 87 | 1017.8 |
| 20260903020504 | 59 | 258 | 14.0 | 23.0 | 0.01 | 0.01 | 0.01 | 86 | 1017.8 |
| 20260903020004 | 59 | 264 | 14.0 | 27.0 | 0.01 | 0.01 | 0.01 | 85 | 1017.8 |
| 20260903015503 | 59 | 268 | 14.0 | 29.0 | 0.00 | 0.00 | 0.00 | 83 | 1017.8 |
| 20260903015004 | 60 | 269 | 13.0 | 29.0 | 0.00 | 0.00 | 0.00 | 81 | 1017.7 |
| 20260903014503 | 60 | 271 | 13.0 | 24.0 | 0.00 | 0.00 | 0.00 | 80 | 1017.6 |
| 20260903014003 | 60 | 274 | 14.0 | 24.0 | 0.00 | 0.00 | 0.00 | 79 | 1017.5 |
| 20260903013503 | 61 | 274 | 14.0 | 24.0 | 0.00 | 0.00 | 0.00 | 78 | 1017.6 |
| 20260903013004 | 61 | 272 | 15.0 | 24.0 | 0.00 | 0.00 | 0.00 | 79 | 1017.6 |
| 20260903012525 | 61 | 268 | 15.0 | 24.0 | 0.00 | 0.00 | 0.00 | 79 | 1017.5 |
| 20260903012003 | 61 | 268 | 13.0 | 25.0 | 0.00 | 0.00 | 0.00 | 79 | 1017.5 |
| 20260903011503 | 60 | 274 | 13.0 | 25.0 | 0.00 | 0.00 | 0.00 | 80 | 1017.5 |
| 20260903011004 | 60 | 276 | 13.0 | 23.0 | 0.00 | 0.00 | 0.00 | 80 | 1017.6 |
| 20260903010503 | 60 | 273 | 13.0 | 29.0 | 0.00 | 0.00 | 0.00 | 80 | 1017.6 |
| 20260903010003 | 60 | 274 | 13.0 | 29.0 | 0.00 | 0.00 | 0.00 | 80 | 1017.6 |
| 20260903005503 | 60 | 275 | 12.0 | 25.0 | 0.00 | 0.00 | 0.00 | 81 | 1017.6 |
| 20260903005003 | 60 | 271 | 10.0 | 25.0 | 0.00 | 0.00 | 0.00 | 81 | 1017.6 |
| 20260903004504 | 60 | 265 | 10.0 | 19.0 | 0.00 | 0.00 | 0.00 | 81 | 1017.5 |
| 20260903004004 | 60 | 266 | 10.0 | 20.0 | 0.00 | 0.00 | 0.00 | 82 | 1017.6 |
| 20260903003504 | 60 | 269 | 11.0 | 20.0 | 0.00 | 0.00 | 0.00 | 82 | 1017.6 |
| 20260903003025 | 59 | 267 | 12.0 | 19.0 | 0.00 | 0.00 | 0.00 | 82 | 1017.5 |
| 20260903002503 | 59 | 271 | 13.0 | 20.0 | 0.00 | 0.00 | 0.00 | 82 | 1017.6 |
| 20260903002025 | 59 | 278 | 15.0 | 27.0 | 0.00 | 0.00 | 0.00 | 82 | 1017.5 |
| 20260903001503 | 59 | 282 | 14.0 | 27.0 | 0.00 | 0.00 | 0.00 | 83 | 1017.5 |
| 20260903001004 | 59 | 279 | 12.0 | 27.0 | 0.00 | 0.00 | 0.00 | 83 | 1017.5 |
| 20260903000524 | 58 | 280 | 10.0 | 19.0 | 0.00 | 0.00 | 0.00 | 85 | 1017.5 |
| 20260903000003 | 58 | 291 | 7.0 | 19.0 | 0.00 | 0.00 | 0.00 | 86 | 1017.5 |
| 20260902235503 | 57 | 303 | 6.0 | 18.0 | 0.00 | 0.00 | 0.00 | 88 | 1017.5 |
| 20260902235003 | 56 | 313 | 7.0 | 13.0 | 0.00 | 0.00 | 0.00 | 87 | 1017.5 |
| 20260902234504 | 55 | 332 | 7.0 | 13.0 | 0.00 | 0.00 | 0.00 | 87 | 1017.4 |
| 20260902234003 | 55 | 346 | 7.0 | 13.0 | 0.00 | 0.00 | 0.00 | 88 | 1017.3 |
| 20260902233503 | 54 | 345 | 6.0 | 10.0 | 0.00 | 0.00 | 0.00 | 88 | 1017.4 |
| 20260902233004 | 54 | 343 | 6.0 | 10.0 | 0.00 | 0.00 | 0.00 | 88 | 1017.5 |
| 20260902232503 | 54 | 347 | 7.0 | 10.0 | 0.00 | 0.00 | 0.00 | 88 | 1017.5 |
| 20260902232003 | 54 | 343 | 7.0 | 11.0 | 0.00 | 0.00 | 0.00 | 88 | 1017.5 |
| 20260902231503 | 53 | 341 | 7.0 | 13.0 | 0.00 | 0.00 | 0.00 | 88 | 1017.3 |
| 20260902231003 | 53 | 333 | 6.0 | 13.0 | 0.00 | 0.00 | 0.00 | 89 | 1017.2 |
| 20260902230503 | 53 | 335 | 7.0 | 11.0 | 0.00 | 0.00 | 0.00 | 88 | 1017.4 |
| 20260902230004 | 52 | 339 | 7.0 | 11.0 | 0.00 | 0.00 | 0.00 | 89 | 1017.2 |
| 20260902225524 | 52 | 344 | 7.0 | 11.0 | 0.00 | 0.00 | 0.00 | 88 | 1017.2 |
| 20260902225003 | 52 | 350 | 7.0 | 11.0 | 0.00 | 0.00 | 0.00 | 89 | 1017.2 |
| 20260902224503 | 52 | 346 | 7.0 | 11.0 | 0.00 | 0.00 | 0.00 | 89 | 1017.1 |
| 20260902224024 | 52 | 337 | 6.0 | 11.0 | 0.00 | 0.00 | 0.00 | 88 | 1017.0 |
| 20260902223503 | 51 | 327 | 6.0 | 10.0 | 0.00 | 0.00 | 0.00 | 88 | 1016.9 |
| 20260902223003 | 51 | 335 | 7.0 | 11.0 | 0.00 | 0.00 | 0.00 | 89 | 1016.9 |
| 20260902222504 | 51 | 328 | 6.0 | 13.0 | 0.00 | 0.00 | 0.00 | 89 | 1016.8 |
| 20260902222004 | 51 | 320 | 5.0 | 13.0 | 0.00 | 0.00 | 0.00 | 89 | 1016.7 |
| 20260902221524 | 51 | 321 | 6.0 | 10.0 | 0.00 | 0.00 | 0.00 | 89 | 1016.6 |
| 20260902221003 | 51 | 324 | 6.0 | 17.0 | 0.00 | 0.00 | 0.00 | 89 | 1016.6 |
| 20260902220504 | 51 | 324 | 5.0 | 17.0 | 0.00 | 0.00 | 0.00 | 89 | 1016.4 |
| 20260902220003 | 51 | 324 | 5.0 | 10.0 | 0.00 | 0.00 | 0.00 | 89 | 1016.3 |
| 20260902215503 | 51 | 339 | 5.0 | 11.0 | 0.00 | 0.00 | 0.00 | 89 | 1016.3 |
| 20260902215003 | 50 | 338 | 5.0 | 11.0 | 0.00 | 0.00 | 0.00 | 89 | 1016.2 |
| 20260902214503 | 50 | 337 | 6.0 | 11.0 | 0.00 | 0.00 | 0.00 | 89 | 1016.2 |
| 20260902214004 | 50 | 343 | 6.0 | 11.0 | 0.00 | 0.00 | 0.00 | 89 | 1016.1 |
| 20260902213503 | 50 | 342 | 5.0 | 10.0 | 0.00 | 0.00 | 0.00 | 89 | 1015.9 |
| 20260902213004 | 51 | 339 | 5.0 | 9.0 | 0.00 | 0.00 | 0.00 | 89 | 1015.9 |
| 20260902212503 | 50 | 335 | 5.0 | 11.0 | 0.00 | 0.00 | 0.00 | 89 | 1015.9 |
| 20260902212003 | 50 | 333 | 5.0 | 11.0 | 0.00 | 0.00 | 0.00 | 89 | 1015.9 |
| 20260902211503 | 51 | 336 | 7.0 | 11.0 | 0.00 | 0.00 | 0.00 | 89 | 1015.8 |
| 20260902211004 | 51 | 338 | 8.0 | 11.0 | 0.00 | 0.00 | 0.00 | 89 | 1015.8 |
| 20260902210503 | 51 | 347 | 9.0 | 14.0 | 0.00 | 0.00 | 0.00 | 88 | 1015.7 |
| 20260902210003 | 51 | 351 | 9.0 | 14.0 | 0.00 | 0.00 | 0.00 | 88 | 1015.5 |